• Em Portugal
  • Lista de países
  • Para 7 dias
  • Temperatura da água
  • Mapas de satélite
  • Mapa do tempo
  • Widgets de tempo
  • user-avatar
    Iniciar Sessão

    Previsão horária em Annaba

    Hoje, 18 Agosto, Sábado

    Tempo Temperatura Precipitação Vento Pressão Humidade
    00:00 +27°C° 0 mm 1 m/s 760 mmHg 72%
    01:00 +24°C° 0 mm 0 m/s 760 mmHg 74%
    02:00 +24°C° 0 mm 0 m/s 759 mmHg 74%
    03:00 +24°C° 0 mm 0 m/s 759 mmHg 75%
    04:00 +24°C° 0 mm 0 m/s 759 mmHg 76%
    05:00 +24°C° 0,1 mm 0 m/s 759 mmHg 74%
    06:00 +24°C° 0,1 mm 0 m/s 760 mmHg 73%
    07:00 +27°C° 0 mm 1 m/s 760 mmHg 71%
    08:00 +28°C° 0,1 mm 1 m/s 760 mmHg 65%
    09:00 +30°C° 0,1 mm 1 m/s 760 mmHg 59%
    10:00 +31°C° 0,1 mm 2 m/s 760 mmHg 53%
    11:00 +32°C° 0,3 mm 2 m/s 760 mmHg 52%
    12:00 +33°C° 0,3 mm 3 m/s 760 mmHg 51%
    13:00 +34°C° 0,3 mm 4 m/s 760 mmHg 49%
    14:00 +34°C° 0,4 mm 4 m/s 760 mmHg 51%
    15:00 +33°C° 0,4 mm 4 m/s 760 mmHg 53%
    16:00 +33°C° 0,4 mm 5 m/s 760 mmHg 55%
    17:00 +32°C° 0 mm 4 m/s 760 mmHg 58%
    18:00 +30°C° 0 mm 4 m/s 760 mmHg 62%
    19:00 +29°C° 0 mm 4 m/s 760 mmHg 66%
    20:00 +28°C° 0 mm 3 m/s 761 mmHg 69%
    21:00 +28°C° 0 mm 3 m/s 761 mmHg 71%
    22:00 +27°C° 0 mm 3 m/s 762 mmHg 74%
    23:00 +27°C° 0 mm 3 m/s 762 mmHg 76%

    Amanhã, 19 Agosto, Domingo

    Tempo Temperatura Precipitação Vento Pressão Humidade
    00:00 +26°C° 0 mm 3 m/s 762 mmHg 77%
    01:00 +26°C° 0 mm 3 m/s 762 mmHg 79%
    02:00 +26°C° 0 mm 3 m/s 761 mmHg 79%
    03:00 +25°C° 0 mm 3 m/s 761 mmHg 80%
    04:00 +25°C° 0 mm 3 m/s 760 mmHg 80%
    05:00 +25°C° 0 mm 3 m/s 761 mmHg 78%
    06:00 +25°C° 0 mm 3 m/s 761 mmHg 75%
    07:00 +26°C° 0 mm 3 m/s 761 mmHg 73%
    08:00 +27°C° 0 mm 3 m/s 761 mmHg 65%
    09:00 +29°C° 0 mm 3 m/s 761 mmHg 58%
    10:00 +31°C° 0 mm 3 m/s 761 mmHg 50%
    11:00 +32°C° 0,1 mm 4 m/s 761 mmHg 48%
    12:00 +33°C° 0,1 mm 5 m/s 761 mmHg 45%
    13:00 +34°C° 0,1 mm 5 m/s 761 mmHg 42%
    14:00 +34°C° 0,1 mm 6 m/s 760 mmHg 45%
    15:00 +33°C° 0,1 mm 6 m/s 760 mmHg 48%
    16:00 +32°C° 0,1 mm 6 m/s 760 mmHg 51%
    17:00 +30°C° 0 mm 6 m/s 760 mmHg 55%
    18:00 +29°C° 0 mm 6 m/s 760 mmHg 58%
    19:00 +28°C° 0 mm 6 m/s 760 mmHg 62%
    20:00 +28°C° 0 mm 5 m/s 760 mmHg 66%
    21:00 +27°C° 0 mm 5 m/s 761 mmHg 70%
    22:00 +26°C° 0 mm 4 m/s 761 mmHg 75%
    23:00 +26°C° 0,3 mm 4 m/s 761 mmHg 76%

    Depois de amanhã, 20 Agosto, Segunda-feira

    Tempo Temperatura Precipitação Vento Pressão Humidade
    00:00 +26°C° 0,3 mm 3 m/s 761 mmHg 77%
    01:00 +25°C° 0,3 mm 3 m/s 760 mmHg 78%
    02:00 +25°C° 0,7 mm 3 m/s 760 mmHg 79%
    03:00 +25°C° 0,7 mm 3 m/s 760 mmHg 79%
    04:00 +25°C° 0,7 mm 3 m/s 760 mmHg 80%
    05:00 +25°C° 0,1 mm 3 m/s 760 mmHg 79%
    06:00 +25°C° 0,1 mm 3 m/s 760 mmHg 78%
    07:00 +25°C° 0,1 mm 3 m/s 760 mmHg 76%
    08:00 +27°C° 0,3 mm 4 m/s 760 mmHg 71%
    09:00 +28°C° 0,3 mm 4 m/s 760 mmHg 66%
    10:00 +29°C° 0,3 mm 4 m/s 760 mmHg 61%
    11:00 +30°C° 0,3 mm 4 m/s 760 mmHg 57%
    12:00 +32°C° 0,3 mm 5 m/s 760 mmHg 54%
    13:00 +33°C° 0,3 mm 5 m/s 760 mmHg 50%
    14:00 +33°C° 0,1 mm 5 m/s 760 mmHg 50%
    15:00 +33°C° 0,1 mm 5 m/s 759 mmHg 50%
    16:00 +33°C° 0,1 mm 6 m/s 759 mmHg 50%
    17:00 +32°C° 0,1 mm 5 m/s 759 mmHg 55%
    18:00 +30°C° 0,1 mm 5 m/s 759 mmHg 60%
    19:00 +29°C° 0,1 mm 4 m/s 759 mmHg 65%
    20:00 +28°C° 0,3 mm 4 m/s 760 mmHg 69%
    21:00 +27°C° 0,3 mm 3 m/s 760 mmHg 73%
    22:00 +26°C° 0,3 mm 3 m/s 761 mmHg 77%
    23:00 +26°C° 0,1 mm 3 m/s 760 mmHg 79%

    21 Agosto, Terça-feira

    Tempo Temperatura Precipitação Vento Pressão Humidade
    00:00 +26°C° 0,1 mm 3 m/s 760 mmHg 80%
    01:00 +25°C° 0,1 mm 3 m/s 760 mmHg 82%
    02:00 +25°C° 0,2 mm 3 m/s 760 mmHg 81%
    03:00 +25°C° 0,2 mm 3 m/s 759 mmHg 81%
    04:00 +25°C° 0,2 mm 4 m/s 759 mmHg 80%
    05:00 +25°C° 0,6 mm 3 m/s 759 mmHg 77%
    06:00 +26°C° 0,6 mm 3 m/s 760 mmHg 74%
    07:00 +26°C° 0,6 mm 3 m/s 760 mmHg 70%
    08:00 +27°C° 0,8 mm 3 m/s 760 mmHg 65%
    09:00 +29°C° 0,8 mm 3 m/s 760 mmHg 59%
    10:00 +30°C° 0,8 mm 4 m/s 760 mmHg 54%
    11:00 +32°C° 0,2 mm 4 m/s 760 mmHg 51%
    12:00 +33°C° 0,2 mm 4 m/s 760 mmHg 48%
    13:00 +34°C° 0,2 mm 4 m/s 760 mmHg 45%
    14:00 +34°C° 0 mm 4 m/s 759 mmHg 46%
    15:00 +34°C° 0 mm 4 m/s 759 mmHg 48%
    16:00 +34°C° 0 mm 4 m/s 759 mmHg 49%
    17:00 +33°C° 0 mm 3 m/s 759 mmHg 53%
    18:00 +31°C° 0 mm 3 m/s 759 mmHg 57%
    19:00 +30°C° 0 mm 2 m/s 759 mmHg 62%
    20:00 +29°C° 0 mm 2 m/s 760 mmHg 66%
    21:00 +28°C° 0 mm 1 m/s 760 mmHg 70%
    22:00 +25°C° 0 mm 0 m/s 761 mmHg 74%
    23:00 +25°C° 0 mm 0 m/s 760 mmHg 75%

    22 Agosto, Quarta-feira

    Tempo Temperatura Precipitação Vento Pressão Humidade
    00:00 +27°C° 0 mm 1 m/s 760 mmHg 76%
    01:00 +26°C° 0 mm 1 m/s 760 mmHg 77%
    02:00 +26°C° 0 mm 1 m/s 760 mmHg 77%
    03:00 +26°C° 0 mm 1 m/s 760 mmHg 77%
    04:00 +26°C° 0 mm 1 m/s 759 mmHg 77%
    05:00 +26°C° 0 mm 1 m/s 760 mmHg 75%
    06:00 +26°C° 0 mm 1 m/s 760 mmHg 72%
    07:00 +27°C° 0 mm 1 m/s 760 mmHg 70%
    08:00 +29°C° 0 mm 1 m/s 760 mmHg 61%
    09:00 +31°C° 0 mm 1 m/s 760 mmHg 53%
    10:00 +33°C° 0 mm 1 m/s 760 mmHg 45%
    11:00 +35°C° 0 mm 2 m/s 760 mmHg 42%
    12:00 +36°C° 0 mm 3 m/s 760 mmHg 39%
    13:00 +37°C° 0 mm 3 m/s 759 mmHg 36%
    14:00 +37°C° 0 mm 4 m/s 759 mmHg 37%
    15:00 +37°C° 0 mm 4 m/s 759 mmHg 37%
    16:00 +36°C° 0 mm 5 m/s 759 mmHg 38%
    17:00 +35°C° 0,5 mm 5 m/s 759 mmHg 44%
    18:00 +33°C° 0,5 mm 4 m/s 759 mmHg 50%
    19:00 +32°C° 0,5 mm 4 m/s 759 mmHg 56%
    20:00 +30°C° 0,7 mm 3 m/s 759 mmHg 58%
    21:00 +30°C° 0,7 mm 3 m/s 760 mmHg 61%
    22:00 +29°C° 0,7 mm 2 m/s 760 mmHg 64%
    23:00 +29°C° 0 mm 2 m/s 760 mmHg 64%

    23 Agosto, Quinta-feira

    Tempo Temperatura Precipitação Vento Pressão Humidade
    00:00 +29°C° 0 mm 2 m/s 759 mmHg 64%
    01:00 +28°C° 0 mm 1 m/s 759 mmHg 65%
    02:00 +28°C° 0 mm 1 m/s 759 mmHg 65%
    03:00 +28°C° 0 mm 2 m/s 758 mmHg 65%
    04:00 +28°C° 0 mm 2 m/s 758 mmHg 65%
    05:00 +28°C° 0 mm 2 m/s 758 mmHg 64%
    06:00 +28°C° 0 mm 1 m/s 758 mmHg 63%
    07:00 +28°C° 0 mm 1 m/s 758 mmHg 62%
    08:00 +30°C° 0 mm 1 m/s 759 mmHg 55%
    09:00 +32°C° 0 mm 1 m/s 759 mmHg 49%
    10:00 +34°C° 0 mm 1 m/s 759 mmHg 43%
    11:00 +36°C° 0 mm 2 m/s 758 mmHg 40%
    12:00 +37°C° 0 mm 2 m/s 758 mmHg 38%
    13:00 +37°C° 0 mm 3 m/s 758 mmHg 36%
    14:00 +37°C° 0 mm 4 m/s 758 mmHg 37%
    15:00 +37°C° 0 mm 4 m/s 757 mmHg 39%
    16:00 +36°C° 0 mm 4 m/s 757 mmHg 41%
    17:00 +35°C° 0 mm 4 m/s 757 mmHg 46%
    18:00 +34°C° 0 mm 4 m/s 757 mmHg 51%
    19:00 +33°C° 0 mm 4 m/s 757 mmHg 56%
    20:00 +31°C° 0,1 mm 3 m/s 758 mmHg 59%
    21:00 +31°C° 0,1 mm 3 m/s 758 mmHg 62%
    22:00 +30°C° 0,1 mm 2 m/s 759 mmHg 65%
    23:00 +30°C° 0,3 mm 2 m/s 759 mmHg 67%
    Mostrar mais